Paris, IL

4:32 AM CDT on July 23, 2017 (GMT -0500)
Edgar County

Weather History for KPRG - February, 2013

Change the Weather History Date:

Monday, February 4, 2013

  Actual Average (KHUF) Record (KHUF)
Temperature  
Mean Temperature 30 °F -  
Max Temperature 44 °F 36 °F 64 °F (1992)
Min Temperature 16 °F 18 °F -3 °F (1965)
Degree Days  
Heating Degree Days 35    
Moisture  
Dew Point 26 °F    
Average Humidity 78    
Maximum Humidity 90    
Minimum Humidity 68    
Precipitation  
Precipitation 0.00 in - - ()
Sea Level Pressure  
Sea Level Pressure 29.89 in    
Wind  
Wind Speed 9 mph (SW)    
Max Wind Speed 20 mph    
Max Gust Speed 26 mph    
Visibility 7 miles    
Events      
Averages and records for this station are not official NWS values.
T = Trace of Precipitation, MM = Missing Value Source: NWS Daily Summary

Daily Weather History Graph

Daily Weather History Graph

Search for Another Location

Airport or City:

Trip Planner

Search our weather history database for the weather conditions in past years. The results will help you decide how hot, cold, wet, or windy it might be!

Date:

Astronomy

Feb. 04, 2013 Rise Set
Actual Time 6:55 AM CST 5:14 PM CST
Civil Twilight 6:27 AM CST 5:42 PM CST
Nautical Twilight 5:55 AM CST 6:14 PM CST
Astronomical Twilight 5:23 AM CST 6:46 PM CST
Moon 1:30 AM CST (2/4) 11:38 AM CST (2/4)
Length of Visible Light 11h 15m
Length of Day
10h 19m
Last Quarter, 37% of the Moon is Illuminated
Feb 4
Last Quarter
Feb 10
New
Feb 17
First Quarter
Feb 25
Full
Mar 4
Last Quarter

Hourly Weather History & Observations

Time (CST) Temp. Windchill Dew Point Humidity Pressure Visibility Wind Dir Wind Speed Gust Speed Precip Events Conditions
12:15 AM 16.7 °F 8.3 °F 12.6 °F 84% 30.07 in - South 5.8 mph - N/A   Clear
12:35 AM 18.3 °F 11.5 °F 14.4 °F 85% 30.07 in - South 4.6 mph - N/A   Mostly Cloudy
12:55 AM 21.7 °F - 18.0 °F 85% 30.06 in - Calm Calm - N/A   Overcast
1:15 AM 23.5 °F 19.1 °F 18.5 °F 81% 30.05 in - SSE 3.5 mph - N/A   Overcast
1:35 AM 23.7 °F 15.6 °F 18.7 °F 81% 30.03 in - SSE 6.9 mph - N/A   Overcast
1:55 AM 23.7 °F 17.8 °F 18.5 °F 80% 30.03 in - SE 4.6 mph - N/A   Overcast
2:15 AM 22.8 °F 16.7 °F 18.0 °F 82% 30.02 in - SE 4.6 mph - N/A   Overcast
2:35 AM 22.1 °F 15.9 °F 18.0 °F 84% 30.02 in - SE 4.6 mph - N/A   Overcast
2:55 AM 22.5 °F 14.1 °F 18.1 °F 83% 30.00 in - SE 6.9 mph - N/A   Overcast
3:15 AM 23.0 °F 15.8 °F 18.9 °F 84% 30.00 in - SSE 5.8 mph - N/A   Overcast
4:55 AM 26.6 °F 16.2 °F 20.1 °F 77% 29.94 in - SSE 11.5 mph - N/A   Overcast
5:15 AM 27.0 °F 14.7 °F 20.3 °F 76% 29.93 in - SSE 16.1 mph - N/A   Overcast
5:35 AM 27.0 °F 14.7 °F 20.3 °F 76% 29.92 in - SSE 16.1 mph 24.2 mph N/A   Overcast
5:55 AM 27.0 °F 15.6 °F 20.7 °F 77% 29.91 in 10.0 mi SSE 13.8 mph - N/A   Overcast
6:15 AM 27.3 °F 16.6 °F 20.8 °F 77% 29.90 in - SSE 12.7 mph - N/A   Overcast
6:35 AM 27.5 °F 16.3 °F 21.0 °F 77% 29.90 in - South 13.8 mph - N/A   Overcast
6:55 AM 27.9 °F 16.3 °F 21.2 °F 76% 29.89 in - SSE 15.0 mph - N/A   Overcast
7:15 AM 27.9 °F 16.8 °F 21.2 °F 76% 29.88 in 10.0 mi SSE 13.8 mph - N/A   Overcast
7:35 AM 28.2 °F 16.8 °F 21.6 °F 76% 29.87 in - South 15.0 mph - N/A   Overcast
7:55 AM 28.9 °F 18.6 °F 22.1 °F 76% 29.87 in - South 12.7 mph 16.1 mph N/A   Overcast
8:15 AM 29.3 °F 22.3 °F 22.6 °F 76% 29.87 in 10.0 mi SSE 6.9 mph - N/A   Overcast
8:35 AM 30.0 °F 20.0 °F 23.0 °F 75% 29.87 in 10.0 mi South 12.7 mph 17.3 mph N/A   Overcast
8:55 AM 30.2 °F 20.2 °F 23.7 °F 77% 29.86 in 10.0 mi South 12.7 mph - N/A   Overcast
9:15 AM 31.3 °F 20.7 °F 24.3 °F 75% 29.85 in 10.0 mi South 15.0 mph - N/A   Overcast
9:35 AM 32.5 °F 21.5 °F 24.8 °F 73% 29.84 in 10.0 mi South 17.3 mph - N/A   Overcast
9:55 AM 33.4 °F 24.3 °F 25.3 °F 72% 29.84 in 5.0 mi SSW 12.7 mph - N/A   Haze
10:15 AM 33.8 °F 23.2 °F 25.7 °F 72% 29.84 in 5.0 mi SSW 17.3 mph - N/A   Haze
10:35 AM 34.3 °F 23.2 °F 25.9 °F 71% 29.83 in 5.0 mi SSW 19.6 mph 26.5 mph N/A   Haze
10:55 AM 34.2 °F 23.3 °F 26.6 °F 74% 29.83 in 5.0 mi SSW 18.4 mph 23.0 mph N/A   Haze
11:15 AM 34.7 °F 25.1 °F 27.1 °F 74% 29.83 in 5.0 mi SSW 15.0 mph 23.0 mph N/A   Haze
11:35 AM 35.2 °F 26.6 °F 27.7 °F 74% 29.83 in 5.0 mi SSW 12.7 mph - N/A   Haze
11:55 AM 36.3 °F 27.1 °F 28.4 °F 73% 29.82 in 5.0 mi SSW 15.0 mph - N/A   Haze
12:15 PM 38.1 °F 30.2 °F 29.5 °F 71% 29.82 in 5.0 mi SW 12.7 mph - N/A   Haze
12:35 PM 38.3 °F 31.4 °F 29.8 °F 72% 29.81 in - SW 10.4 mph 16.1 mph N/A   Scattered Clouds
12:55 PM 39.0 °F 30.6 °F 31.1 °F 73% 29.80 in 5.0 mi SW 15.0 mph - N/A   Scattered Clouds
1:15 PM 39.2 °F 32.0 °F 31.6 °F 74% 29.79 in - SSW 11.5 mph - N/A   Clear
1:35 PM 41.0 °F 35.2 °F 32.4 °F 71% 29.79 in - SW 9.2 mph - N/A   Scattered Clouds
1:55 PM 41.5 °F 34.6 °F 32.2 °F 69% 29.79 in - SW 12.7 mph - N/A   Clear
2:15 PM 42.4 °F 36.5 °F 32.7 °F 68% 29.79 in - SW 10.4 mph - N/A   Clear
2:35 PM 43.0 °F 37.2 °F 33.1 °F 68% 29.79 in - WSW 10.4 mph - N/A   Clear
2:55 PM 43.2 °F 37.9 °F 33.1 °F 68% 29.79 in - WSW 9.2 mph - N/A   Clear
3:15 PM 44.2 °F 38.4 °F 34.7 °F 69% 29.80 in 7.0 mi West 11.5 mph - N/A   Clear
3:35 PM 41.9 °F 36.3 °F 33.8 °F 73% 29.81 in - NW 9.2 mph - N/A   Mostly Cloudy
3:55 PM 41.4 °F 36.8 °F 32.5 °F 71% 29.81 in - NNW 6.9 mph - N/A   Mostly Cloudy
4:15 PM 40.5 °F 33.6 °F 32.2 °F 72% 29.81 in - NNW 11.5 mph - N/A   Clear
4:35 PM 38.7 °F 33.6 °F 31.8 °F 76% 29.82 in 5.0 mi NNW 6.9 mph - N/A   Clear
4:55 PM 37.4 °F 32.8 °F 30.7 °F 77% 29.82 in - NNW 5.8 mph - N/A   Clear
5:15 PM 36.0 °F 31.1 °F 30.2 °F 80% 29.83 in - NNW 5.8 mph - N/A   Clear
5:35 PM 34.7 °F 30.6 °F 29.8 °F 82% 29.84 in 7.0 mi NNW 4.6 mph - N/A   Clear
5:55 PM 33.4 °F 26.6 °F 29.8 °F 87% 29.85 in 7.0 mi NNW 8.1 mph - N/A   Clear
6:15 PM 32.9 °F 25.9 °F 29.3 °F 87% 29.87 in 7.0 mi NNW 8.1 mph - N/A   Clear
6:35 PM 32.2 °F 24.4 °F 29.3 °F 89% 29.88 in 5.0 mi NNW 9.2 mph - N/A   Clear
6:55 PM 32.0 °F 24.8 °F 28.9 °F 88% 29.89 in 7.0 mi NNW 8.1 mph - N/A   Clear
7:15 PM 32.0 °F 25.6 °F 28.4 °F 87% 29.90 in 5.0 mi North 6.9 mph - N/A   Clear
7:35 PM 31.5 °F 24.9 °F 27.9 °F 87% 29.91 in 5.0 mi NNW 6.9 mph - N/A   Clear
7:55 PM 31.1 °F 26.4 °F 27.9 °F 88% 29.92 in 5.0 mi NNW 4.6 mph - N/A   Clear
8:15 PM 30.7 °F 26.0 °F 28.0 °F 90% 29.91 in 5.0 mi NNW 4.6 mph - N/A   Scattered Clouds
8:35 PM 30.7 °F 26.0 °F 28.0 °F 90% 29.91 in - NNW 4.6 mph - N/A   Unknown
8:55 PM 30.9 °F 22.8 °F 27.5 °F 87% 29.91 in - North 9.2 mph - N/A   Mostly Cloudy
9:15 PM 30.9 °F 24.3 °F 26.8 °F 85% 29.92 in - North 6.9 mph - N/A   Overcast
9:35 PM 30.9 °F 24.3 °F 26.6 °F 84% 29.93 in - North 6.9 mph - N/A   Overcast
9:55 PM 30.6 °F 23.8 °F 25.3 °F 81% 29.92 in - North 6.9 mph - N/A   Overcast
10:15 PM 30.2 °F 23.4 °F 25.0 °F 81% 29.92 in - North 6.9 mph - N/A   Scattered Clouds
10:35 PM 29.8 °F 26.3 °F 24.8 °F 81% 29.93 in - North 3.5 mph - N/A   Clear
10:55 PM 29.5 °F 25.9 °F 24.8 °F 83% 29.94 in - North 3.5 mph - N/A   Unknown
11:15 PM 29.3 °F 25.6 °F 24.8 °F 83% 29.94 in - NNW 3.5 mph - N/A   Unknown
11:35 PM 29.3 °F 24.3 °F 24.8 °F 83% 29.95 in - North 4.6 mph - N/A   Unknown
11:55 PM 29.1 °F 25.4 °F 24.6 °F 83% 29.93 in - North 3.5 mph - N/A   Clear